GEFSMA_500_meanwind_060.txt.gz
Wind_Speed
33 33 33 32 32 32 32 32 33 32 31 31 30 29 29 28 28 27 27 27 25 24 23 23 23 21 21 20 19 18 17 16 16 16 16 16 16 16 16 16 15 15 15
36 37 37 36 36 35 35 35 36 36 35 35 34 33 33 32 30 30 29 29 28 27 26 25 25 25 24 23 22 21 20 19 18 17 17 17 17 17 17 17 17 17 16
39 39 39 39 38 38 38 38 39 40 39 39 38 37 36 34 33 31 31 30 30 29 28 27 27 27 27 26 25 24 23 22 20 20 19 19 19 19 18 19 18 18 18
42 42 41 40 39 40 40 40 41 42 42 42 41 40 37 36 34 32 32 33 32 31 31 30 29 29 29 28 27 27 26 25 24 22 22 21 21 21 21 20 20 20 20
39 40 40 40 40 40 41 42 42 42 42 42 41 39 38 37 34 33 31 32 33 32 31 31 30 30 30 30 30 29 28 27 26 26 24 23 23 23 22 22 22 21 21
39 40 39 40 40 40 40 41 42 42 42 41 39 37 35 35 35 35 33 32 31 32 32 32 31 30 31 31 30 30 30 30 29 28 26 25 24 24 24 23 23 23 23
37 39 39 38 39 40 40 42 42 41 41 40 38 36 34 32 32 33 33 32 31 32 32 31 30 31 31 31 31 31 31 31 31 30 28 27 26 26 25 25 24 24 24
35 36 37 38 39 39 40 40 40 41 40 41 38 35 33 32 32 32 32 31 32 33 32 31 31 31 31 31 32 32 32 32 32 31 30 29 28 27 27 26 26 25 25
34 35 36 37 38 38 39 39 40 40 39 39 38 37 35 33 32 31 31 31 31 31 32 33 32 33 32 31 32 33 32 32 32 32 31 29 29 28 28 27 27 26 25
34 35 36 37 38 38 38 38 38 39 39 38 38 37 35 33 31 30 31 32 32 31 32 33 33 32 32 32 32 32 32 31 32 33 32 31 30 29 29 28 27 27 26
34 35 36 37 38 38 39 39 38 38 38 38 37 36 36 34 32 31 31 31 32 32 32 33 32 32 32 33 33 33 32 32 32 33 33 32 31 30 29 28 28 27 27
35 36 36 37 38 39 39 39 39 39 38 38 38 37 36 35 34 33 33 32 33 33 33 32 32 31 32 33 33 34 33 33 34 34 34 33 32 31 30 29 29 28 28
35 36 37 37 38 39 39 39 39 39 39 39 38 37 37 37 36 35 34 34 34 34 33 32 31 31 31 32 32 33 33 34 34 34 35 34 33 32 31 31 31 31 30
35 36 36 37 38 39 39 39 39 39 40 39 38 38 38 36 36 35 36 35 34 34 33 33 32 32 32 31 32 32 33 33 34 34 35 35 34 33 33 33 33 32 32
35 36 36 37 37 38 39 39 39 39 39 39 39 39 38 37 37 37 37 36 35 35 35 34 32 32 33 32 32 33 33 34 35 36 36 36 35 35 34 34 34 33 33
36 36 36 36 36 37 38 38 39 40 40 39 39 39 38 37 37 37 37 37 36 36 36 34 33 33 33 33 34 34 35 35 37 37 37 37 37 36 36 35 34 34 34
36 36 36 36 36 36 36 36 37 38 38 38 38 38 37 36 36 36 36 35 34 35 35 34 34 34 34 34 35 35 35 35 36 37 37 38 37 36 36 35 35 35 35
37 37 37 36 35 35 35 35 34 35 35 36 35 35 35 35 34 34 34 33 33 33 33 34 34 34 33 33 33 34 35 37 37 36 37 36 35 34 34 34 34 35 36
37 37 36 35 34 33 33 33 32 31 31 31 30 31 31 31 32 32 32 32 32 32 33 33 34 34 34 33 33 33 34 36 36 35 34 33 32 33 33 33 34 36 37
38 37 36 35 33 32 31 29 28 27 26 26 26 26 27 27 28 29 29 29 29 29 30 31 32 32 32 32 32 31 31 32 31 30 30 31 32 32 32 33 35 36 38
38 36 35 34 32 31 29 28 26 24 23 23 22 23 23 23 23 24 24 23 25 27 27 27 28 29 29 30 29 29 28 28 26 27 28 29 30 30 32 34 35 37 39
38 36 35 33 31 29 27 26 24 22 20 19 18 17 18 20 20 20 21 21 22 23 25 26 27 27 26 26 25 25 24 24 23 24 25 27 29 30 32 33 35 37 38
38 35 34 31 29 27 26 24 21 20 18 17 15 15 16 17 18 18 19 19 20 20 22 24 24 23 22 20 19 18 18 18 20 21 22 24 25 27 29 31 33 36 38
38 35 32 29 28 26 23 20 19 18 16 15 15 14 14 15 15 16 16 17 19 19 20 21 20 19 17 15 14 14 15 16 18 19 20 21 23 26 28 31 34 37 39
37 35 31 28 25 23 21 19 17 16 15 14 14 13 14 14 15 16 17 17 19 18 16 16 15 14 13 11 10 11 11 12 13 15 17 20 22 25 28 30 33 36 38
37 35 32 28 25 22 20 18 16 14 14 13 13 14 14 15 16 17 16 17 18 16 14 13 12 11 10 8 8 8 9 10 12 14 16 19 22 25 28 31 33 35 37

GEFSMA_500_meanwind_066.txt.gz
Wind_Speed
34 35 36 37 37 38 38 39 38 38 38 36 35 35 34 34 33 33 32 31 30 28 28 27 26 25 24 23 23 21 20 20 19 18 18 17 17 17 16 16 16 16 15
34 34 34 35 37 39 40 40 40 39 39 39 39 38 39 38 37 36 36 35 33 32 31 29 29 28 27 26 25 25 24 24 22 21 20 19 19 18 18 17 17 17 17
32 32 33 33 35 37 38 39 39 40 40 40 41 41 41 40 39 39 39 38 35 35 34 32 31 31 29 29 28 28 27 26 25 24 23 22 21 20 19 19 19 18 18
30 30 31 31 33 34 35 36 37 39 40 40 40 40 40 40 39 38 37 36 36 35 35 33 32 31 30 30 29 29 28 28 27 26 26 25 24 23 21 20 20 20 19
27 28 28 28 30 31 31 32 34 35 37 39 39 39 38 38 38 38 36 35 35 35 34 33 32 32 32 31 31 30 30 30 29 29 28 27 26 26 25 23 22 22 21
26 27 27 28 29 29 30 31 33 34 35 35 37 37 37 36 36 36 36 36 35 34 34 33 33 33 32 33 32 31 31 31 30 30 30 30 29 28 27 26 25 24 24
25 26 27 27 28 29 30 31 32 33 33 35 36 36 35 35 35 34 34 34 33 33 35 34 34 33 32 33 33 32 31 31 31 31 32 31 31 30 29 28 27 26 26
23 24 25 26 27 28 29 31 32 33 33 35 36 35 36 35 34 34 33 32 32 33 34 34 34 34 33 33 32 32 31 31 31 32 32 32 32 32 31 30 30 28 27
23 23 24 25 26 27 29 30 32 33 34 35 36 36 36 34 34 33 31 30 30 30 32 33 33 33 33 33 32 31 31 31 31 32 32 33 33 33 32 31 31 30 29
23 24 25 25 26 27 28 30 31 33 34 35 36 37 37 36 34 32 30 30 30 30 30 31 31 32 33 33 33 33 32 32 32 32 32 33 32 32 32 32 32 32 31
25 25 26 26 27 28 29 30 31 33 34 35 36 37 37 37 36 34 31 31 31 31 30 31 31 31 33 33 33 33 33 34 33 33 33 33 33 33 32 33 33 33 32
27 27 27 27 28 29 30 31 32 33 35 35 36 37 37 37 36 35 34 32 32 32 31 31 31 31 33 33 34 33 33 34 33 33 33 33 34 34 34 34 34 33 33
30 29 28 28 29 29 30 31 32 34 35 35 36 36 37 37 37 36 35 34 34 34 33 33 32 32 33 32 32 32 32 33 34 33 33 33 34 35 35 35 35 35 34
32 31 31 31 31 31 31 32 33 34 34 35 35 36 36 36 37 36 36 36 35 35 35 34 34 34 34 33 33 32 31 33 34 34 34 35 34 35 35 35 36 37 36
34 33 32 32 32 32 33 33 33 34 34 34 34 35 35 36 36 37 37 37 37 37 36 36 35 34 34 34 34 35 34 33 33 34 35 37 36 35 34 34 36 37 37
36 35 34 33 33 34 34 34 34 34 34 34 34 34 34 35 35 36 36 37 37 37 36 36 36 35 35 35 34 34 35 35 34 35 35 36 36 36 36 35 37 38 38
38 37 36 36 35 35 35 35 35 35 35 34 34 33 33 34 34 35 35 37 37 37 37 36 36 36 36 35 35 35 35 35 35 35 35 36 37 37 37 37 37 37 39
40 39 38 38 37 36 36 36 36 35 35 34 34 33 33 32 33 33 34 35 36 36 37 36 36 36 37 37 37 36 35 35 36 36 36 36 37 38 38 38 38 39 39
43 42 40 40 39 38 37 37 37 36 35 34 33 32 31 31 31 31 32 33 34 35 36 36 36 36 37 37 37 36 35 35 37 37 36 36 36 36 36 37 38 39 39
48 45 43 42 41 40 39 38 37 36 34 33 33 32 30 30 29 29 29 30 31 32 33 35 35 36 37 37 37 36 36 36 36 37 36 34 33 34 35 35 36 37 37
51 49 47 44 43 41 39 38 37 36 34 33 32 31 29 28 27 26 27 28 29 30 31 33 34 35 35 35 35 35 35 34 35 33 32 31 31 31 32 31 31 32 32
54 51 49 46 44 42 40 39 37 36 34 33 31 29 28 25 24 24 25 27 28 29 30 32 32 33 34 33 32 32 33 32 31 29 28 28 28 28 28 27 26 25 25
56 53 50 47 44 43 41 39 37 35 33 31 29 27 26 24 22 23 24 25 26 27 28 28 30 30 31 30 29 29 30 29 28 27 26 25 24 23 22 21 22 22 23
55 52 49 47 44 43 41 39 37 35 33 30 27 25 23 22 21 21 22 23 23 24 26 27 27 26 26 26 26 26 26 26 26 25 24 22 21 20 19 18 19 20 22
52 50 47 45 43 41 40 38 36 34 31 28 26 23 21 20 19 20 21 21 22 22 23 23 23 23 24 24 24 24 24 24 23 22 19 16 15 14 14 15 17 19 21
47 46 45 43 42 40 38 36 35 33 30 27 25 23 20 19 19 18 18 17 17 19 20 21 21 21 22 22 21 21 21 20 18 16 14 12 12 12 13 14 16 18 20

GEFSMA_500_meanwind_072.txt.gz
Wind_Speed
32 32 32 32 33 33 32 32 32 33 33 34 34 34 33 33 32 33 32 31 31 30 30 29 28 27 26 26 25 23 23 22 20 20 19 19 19 19 18 18 17 17 16
32 31 30 30 30 31 31 31 31 31 31 31 32 32 32 32 31 32 34 32 32 32 32 32 31 31 30 30 28 27 26 25 23 23 22 21 21 21 20 20 19 18 18
31 30 29 29 29 28 28 29 29 29 28 28 27 28 30 31 31 31 33 34 33 33 34 34 33 33 32 31 30 30 30 28 26 25 25 24 23 23 23 22 20 20 19
29 29 28 28 28 27 27 27 27 27 27 26 25 25 27 28 30 30 30 31 32 32 33 33 33 33 33 33 31 31 31 30 28 27 26 26 26 25 24 24 23 22 21
29 28 27 26 26 26 26 26 25 25 25 25 24 24 25 26 27 28 29 29 29 30 30 31 32 33 32 31 32 32 32 31 30 29 28 28 27 26 26 26 25 24 23
28 27 26 25 25 25 24 24 24 24 24 24 24 23 24 24 24 24 26 27 26 27 27 28 29 31 31 31 33 33 33 32 31 30 28 28 28 28 27 27 27 26 25
27 26 25 25 24 24 23 23 23 23 23 23 23 23 23 24 24 24 24 25 26 26 26 26 27 28 29 29 30 33 34 34 33 31 30 29 29 29 29 29 28 28 28
26 26 25 25 25 24 24 24 24 23 23 24 24 24 24 24 25 25 25 24 25 25 25 26 26 26 27 28 28 30 33 34 34 33 32 31 30 30 30 30 30 30 29
26 26 26 26 25 25 25 25 25 25 25 25 26 25 25 25 25 25 25 25 25 25 25 25 25 25 27 28 29 30 31 34 34 34 33 33 31 30 31 32 32 32 31
26 27 27 27 27 27 27 27 27 27 26 26 27 27 27 26 26 24 25 25 26 26 26 26 26 25 26 27 27 29 31 34 33 33 34 33 32 31 30 32 32 32 33
29 28 29 29 29 29 29 29 29 29 28 28 28 28 28 27 28 26 25 26 26 26 27 27 27 26 26 27 28 28 30 32 32 33 33 33 32 31 31 31 31 32 33
32 31 31 31 31 32 32 32 31 31 31 30 30 29 29 29 29 29 27 26 27 27 28 28 29 29 28 27 27 28 29 30 32 32 33 34 33 32 31 31 32 32 32
34 34 34 33 33 34 34 34 33 33 32 32 31 31 30 30 30 30 29 28 28 28 29 29 29 30 29 27 28 30 29 30 32 32 32 33 34 33 32 32 32 32 33
37 37 37 36 36 36 36 36 35 35 34 34 33 32 32 31 31 31 30 29 29 28 29 30 30 30 30 29 29 29 29 29 31 32 32 33 33 33 33 33 33 33 33
41 40 40 39 39 38 38 38 37 37 36 35 34 33 33 32 32 31 31 31 30 29 29 30 31 31 31 30 30 30 30 30 30 29 30 31 32 33 33 33 33 33 34
45 43 43 42 41 41 40 39 39 38 38 37 35 35 34 33 33 33 32 32 32 31 30 30 31 31 32 31 30 30 31 32 31 30 29 30 31 31 32 33 33 33 34
50 48 46 45 44 43 42 41 40 39 39 38 37 36 36 35 34 34 33 33 33 33 31 29 30 31 31 31 31 31 30 31 31 30 30 30 29 30 31 32 32 32 33
55 54 51 49 47 46 45 43 42 41 40 39 38 37 37 36 35 34 34 33 33 33 31 29 29 30 31 31 31 31 30 30 29 30 29 29 29 30 31 31 31 32 33
60 59 56 54 52 50 47 45 44 43 42 40 39 38 38 37 36 35 34 33 32 32 31 29 28 29 29 30 30 30 30 29 30 29 28 29 29 30 30 30 30 30 31
64 63 62 59 56 54 51 48 47 45 43 41 40 39 39 38 37 36 35 34 32 31 30 29 28 28 27 28 28 29 29 28 28 28 28 28 28 29 28 28 29 29 30
67 66 65 63 60 57 54 52 49 46 45 43 42 41 40 39 37 37 35 34 32 31 30 29 28 27 27 27 27 28 28 28 28 28 28 28 28 28 28 28 29 30 30
65 66 66 64 62 60 58 55 52 50 47 45 43 42 40 38 37 36 35 34 32 30 29 28 28 27 27 27 27 27 27 28 28 28 28 28 28 28 28 28 28 29 29
59 61 62 62 61 60 59 56 53 51 49 47 45 42 40 38 37 35 34 33 31 30 29 28 27 26 26 26 26 26 26 26 26 26 26 28 28 27 27 27 27 27 27
49 51 54 56 56 56 55 54 52 51 49 47 45 43 40 38 36 35 33 32 30 29 28 28 26 25 25 25 25 25 25 25 25 25 25 24 25 26 26 24 23 23 22
37 39 42 44 46 48 49 49 49 48 47 46 44 42 40 37 36 34 32 30 28 27 26 25 23 24 24 23 23 23 23 23 22 23 23 23 24 24 23 22 21 21 21
30 31 32 35 37 39 42 44 46 46 44 43 43 41 39 36 34 32 30 28 26 25 25 24 22 22 23 22 22 22 22 21 20 21 21 21 21 22 21 21 20 20 19

GEFSMA_500_meanwind_078.txt.gz
Wind_Speed
27 28 29 27 26 26 25 25 25 24 24 23 24 24 23 23 24 26 25 27 28 29 29 27 26 26 25 25 24 22 21 19 18 18 17 17 17 18 18 17 17 16 16
28 28 28 27 26 24 23 23 23 22 22 21 21 21 21 21 22 23 22 24 25 28 30 29 28 29 29 28 27 27 25 24 22 21 21 20 20 20 20 20 19 18 18
28 28 27 26 25 24 23 22 21 21 20 19 19 18 18 18 17 18 20 21 22 23 25 27 28 27 29 30 29 29 28 28 27 25 24 23 22 22 22 22 21 20 20
28 27 26 25 24 22 21 21 20 20 19 18 18 17 16 15 16 16 17 18 19 21 23 24 26 27 27 29 30 31 30 30 30 28 28 27 25 25 25 24 23 22 22
29 27 26 25 23 22 21 20 19 19 18 17 16 16 16 15 15 15 15 16 17 18 20 22 23 25 26 27 28 30 31 31 32 31 30 29 29 28 27 27 26 25 24
29 27 25 24 23 21 21 20 19 19 18 16 15 15 15 15 15 14 14 15 16 17 18 20 21 22 24 26 27 29 30 31 32 33 32 31 31 30 29 29 28 27 26
29 28 27 24 23 22 21 20 20 19 18 17 16 15 15 15 15 15 15 15 15 16 17 18 20 21 23 25 27 28 30 31 32 32 33 33 32 32 32 31 30 29 28
29 28 26 24 23 23 22 21 21 20 20 18 17 17 17 16 16 16 16 15 15 16 16 17 19 21 22 24 26 27 28 30 31 32 33 34 34 34 33 33 32 31 30
28 27 26 24 24 24 23 23 22 22 21 20 19 18 18 18 18 17 17 16 16 16 17 17 18 19 21 22 24 26 27 29 31 32 32 33 35 36 36 35 34 33 32
29 28 27 27 26 26 26 25 25 24 24 23 22 21 20 19 19 19 18 18 17 17 17 18 18 19 20 21 23 25 27 28 30 31 32 33 34 36 37 37 36 35 34
32 31 29 29 29 29 29 28 28 28 27 26 25 25 23 22 21 20 20 20 19 18 18 18 18 19 20 21 22 24 27 28 29 31 32 33 34 35 37 38 37 36 35
35 34 33 33 33 33 33 31 31 31 30 29 29 28 27 26 25 23 22 22 21 21 20 19 19 19 20 21 23 23 25 28 29 30 32 33 34 36 36 37 38 37 36
40 39 38 37 37 36 37 36 35 34 33 33 32 31 30 29 28 26 25 24 23 23 22 21 20 20 21 22 22 24 25 27 28 31 32 33 35 36 36 37 38 38 37
44 44 43 42 42 41 40 39 38 38 37 36 35 34 33 31 31 29 28 26 24 24 24 23 22 22 22 22 23 23 25 25 27 29 30 31 33 35 36 36 38 38 37
49 48 48 47 46 45 44 43 42 41 40 39 37 36 35 34 33 32 31 29 27 25 24 25 24 24 24 23 23 24 25 25 27 28 29 30 32 35 36 37 37 37 37
54 54 53 52 51 49 48 47 46 44 43 41 40 39 37 36 35 34 33 31 30 27 25 26 26 26 25 24 24 24 25 26 27 28 29 30 30 32 35 37 37 37 37
58 58 57 56 55 53 52 51 49 48 47 45 43 41 39 38 37 36 35 33 32 30 27 26 27 27 27 26 25 25 26 26 26 28 28 30 30 30 32 35 35 36 35
62 61 61 60 59 58 56 55 53 51 50 48 46 44 42 40 39 37 36 35 34 32 30 28 28 27 27 27 26 26 26 26 27 28 29 30 30 29 31 34 35 34 34
63 63 62 62 62 61 60 59 57 55 53 51 49 47 45 43 41 40 38 36 35 33 32 30 28 27 27 27 26 26 26 26 26 27 28 29 30 30 31 31 32 32 32
61 61 61 61 62 62 61 61 60 59 57 54 52 50 47 45 43 42 40 38 36 34 33 31 30 28 27 27 27 26 26 26 26 27 27 28 28 28 30 30 31 31 32
57 59 60 61 62 62 62 61 61 60 59 57 55 52 50 47 45 43 41 40 38 35 33 32 30 29 28 28 27 27 26 26 25 26 26 26 27 28 29 30 31 31 32
48 51 53 55 57 59 61 61 61 60 59 58 56 55 52 49 46 44 42 40 38 36 34 33 31 29 28 28 27 26 26 25 25 25 26 26 26 27 28 29 29 30 30
39 39 41 42 44 47 51 54 57 58 58 57 55 55 53 51 49 46 43 41 39 36 35 33 31 29 28 27 26 25 25 25 25 25 26 27 27 27 27 28 28 28 28
34 34 33 33 34 36 39 43 47 50 52 53 53 52 53 52 50 47 45 42 40 37 35 33 31 29 28 27 25 24 24 23 24 25 25 26 27 27 28 28 27 27 28
32 30 29 30 30 31 32 35 38 41 44 47 49 50 50 50 49 47 45 43 40 37 35 32 31 29 27 26 24 24 24 23 23 24 25 26 26 27 27 28 28 28 28
31 29 27 27 27 27 28 29 32 34 38 41 43 45 47 49 48 47 45 43 40 38 35 32 30 28 27 25 24 24 23 23 23 23 23 23 24 25 25 25 25 26 26

GEFSMA_500_meanwind_084.txt.gz
Wind_Speed
26 26 26 24 23 23 22 23 22 21 21 21 21 22 21 20 20 21 22 22 23 24 25 26 25 25 27 27 26 25 23 22 21 20 19 19 18 18 18 17 16 16 15
28 27 25 24 24 23 23 22 22 21 21 21 21 21 21 20 19 21 21 22 22 23 25 26 27 27 27 29 29 28 27 26 24 23 22 22 21 20 19 19 18 18 17
28 24 22 23 23 23 22 22 22 22 22 21 20 20 20 20 20 19 19 19 20 21 23 24 26 26 27 29 30 30 29 28 27 26 26 24 23 22 21 21 20 20 19
25 23 22 23 23 23 22 21 21 21 20 20 19 19 19 20 19 19 18 18 19 19 20 22 23 25 27 28 28 30 31 31 30 29 29 27 26 25 24 23 22 22 21
24 22 21 22 22 22 21 21 20 20 19 19 19 19 19 19 19 19 18 18 19 19 19 21 21 21 23 24 26 27 28 28 30 30 31 30 29 28 26 25 25 24 24
24 23 22 22 21 21 20 20 19 19 19 19 19 18 18 18 18 18 17 17 18 18 18 19 19 20 21 22 23 25 27 28 29 30 31 31 31 30 29 28 27 26 26
23 23 21 21 21 20 20 20 20 19 19 19 18 18 18 18 17 17 16 16 16 17 17 17 18 19 20 22 23 24 25 27 29 30 30 31 32 32 31 30 29 28 27
24 23 22 21 21 21 21 21 20 20 20 19 19 19 19 19 18 17 16 16 15 16 16 16 17 18 18 20 21 22 22 23 27 29 31 30 32 33 32 32 31 31 29
25 25 24 23 22 23 23 22 22 22 22 22 21 21 21 21 20 19 18 17 16 16 16 16 16 16 17 18 19 20 21 21 23 26 29 30 30 31 32 32 32 31 31
27 27 27 26 25 25 24 24 25 24 25 25 24 23 23 23 22 22 21 19 18 17 17 17 16 16 17 18 18 20 21 21 22 24 27 29 30 30 31 33 34 33 33
32 31 30 30 29 29 28 28 28 28 27 27 27 26 26 25 25 25 23 22 21 20 19 18 18 17 17 17 18 19 19 20 21 23 25 27 28 29 30 32 34 34 35
36 36 36 35 34 34 33 32 32 32 31 30 29 29 29 28 28 28 27 26 24 23 22 21 20 19 18 17 17 18 18 19 20 21 23 25 26 28 30 31 32 33 34
42 42 41 41 40 38 38 37 36 36 35 34 33 33 32 32 31 31 30 29 28 26 25 24 23 22 21 19 19 18 18 18 19 21 23 24 26 28 29 30 31 32 33
48 47 47 47 46 45 44 43 42 41 40 39 39 37 36 35 35 34 33 32 31 30 29 27 26 25 23 22 21 20 19 19 19 20 21 23 25 27 29 29 30 32 33
53 53 52 51 51 50 49 48 47 46 45 44 43 42 40 39 38 37 36 35 34 32 32 31 29 27 25 24 23 22 21 21 21 21 22 23 24 26 28 30 31 32 33
56 56 56 56 55 55 54 53 52 51 49 48 47 46 45 43 42 40 39 37 36 34 33 33 32 29 27 26 25 25 23 23 23 23 23 23 24 25 27 29 31 32 33
58 59 59 59 59 58 58 57 56 55 54 53 51 50 48 47 45 44 42 40 38 36 34 34 34 32 30 29 27 27 26 24 24 24 24 24 25 26 26 28 31 32 33
59 59 60 60 60 61 61 61 60 59 58 57 56 54 52 51 49 48 46 43 41 39 37 35 35 35 33 31 29 28 27 26 26 26 25 25 25 25 26 28 29 31 32
57 58 59 60 60 61 61 62 62 62 61 60 59 58 56 54 53 51 49 47 45 42 40 38 37 36 34 32 31 30 29 27 26 26 26 26 26 26 26 28 29 30 31
53 53 54 55 56 57 58 59 60 61 61 62 61 60 59 57 55 54 52 50 47 45 42 40 38 37 36 34 32 31 30 29 27 26 26 26 26 26 27 28 30 31 31
48 48 48 49 49 50 51 53 56 57 59 60 61 61 60 59 58 56 54 52 50 47 45 42 40 38 36 35 33 32 31 29 28 27 27 26 26 27 28 29 29 30 30
43 43 41 42 42 42 44 45 47 50 53 55 58 60 61 60 59 58 56 54 51 49 46 44 42 39 37 36 35 33 31 30 29 28 27 26 25 26 27 28 29 29 30
39 39 37 37 37 37 38 39 40 42 45 48 52 55 58 59 59 59 58 56 53 50 48 45 42 40 38 37 36 34 31 30 29 28 28 28 27 26 26 27 28 29 29
38 38 37 37 35 35 35 34 35 36 37 40 43 47 52 56 58 58 57 56 54 51 49 47 44 41 39 38 36 34 32 30 30 29 28 28 27 27 26 26 27 27 28
36 36 36 36 35 34 34 32 32 32 32 33 35 39 44 49 53 56 56 55 54 52 50 48 45 42 40 38 36 34 32 30 30 29 28 28 27 27 27 27 27 28 28
34 34 34 34 34 33 32 31 31 30 30 31 32 34 37 41 46 50 52 53 53 52 51 49 46 44 41 39 37 34 32 30 29 28 28 27 26 26 27 27 27 28 28